Weather History for San Jose, Costa Rica

Change the Weather History Date:

Wednesday, January 12, 2011

  Actual Average Record
Temperature  
Mean Temperature 74 °F -  
Max Temperature 81 °F 80 °F 85 °F (2015)
Min Temperature 66 °F 63 °F 60 °F (2002)
Cooling Degree Days 8    
Growing Degree Days 24 (Base 50)    
Moisture  
Dew Point 61 °F    
Average Humidity 65    
Maximum Humidity 78    
Minimum Humidity 44    
Precipitation  
Precipitation 0.00 in 0.01 in - ()
Sea Level Pressure  
Sea Level Pressure 29.90 in    
Wind  
Wind Speed 16 mph ()    
Max Wind Speed 28 mph    
Max Gust Speed 36 mph    
Visibility 7.3 miles    
Events Rain    
Averages and records for this station are not official NWS values.
T = Trace of Precipitation, MM = Missing Value Source: Averaged Metar Reports

Daily Weather History Graph

Daily Weather History Graph

Search for Another Location

Airport:

Trip Planner

Search our weather history database for the weather conditions in past years. The results will help you decide how hot, cold, wet, or windy it might be!

Date:

Astronomy

Jan. 12, 2011 Rise Set
Actual Time 5:57 AM CST 5:32 PM CST
Civil Twilight 5:34 AM CST 5:55 PM CST
Nautical Twilight 5:08 AM CST 6:21 PM CST
Astronomical Twilight 4:42 AM CST 6:47 PM CST
Moon 11:24 AM CST (1/12) No Moon Set
Length of Visible Light 12h 20m
Length of Day
11h 35m
First Quarter, 53% of the Moon is Illuminated
Jan 12
First Quarter
Jan 19
Full
Jan 26
Last Quarter
Feb 2
New
Feb 11
First Quarter

Hourly Weather History & Observations

Time (CST) Temp. Dew Point Humidity Pressure Visibility Wind Dir Wind Speed Gust Speed Precip Events Conditions
12:00 AM 72 °F 63 °F 65% 29.74 in 12 mi ESE 15.0 mph - -   Scattered Clouds
12:00 AM 71.6 °F 62.6 °F 73% 29.92 in 6.2 mi ESE 15.0 mph - N/A   Scattered Clouds
1:00 AM 71.6 °F 62.6 °F 73% 29.90 in 6.2 mi ESE 17.3 mph 31.1 mph N/A   Scattered Clouds
2:00 AM 71.6 °F 62.6 °F 73% 29.88 in 6.2 mi ESE 20.7 mph 32.2 mph N/A   Scattered Clouds
3:00 AM 72 °F 63 °F 65% 29.72 in 12 mi ESE 15.0 mph - -  
3:00 AM 71.6 °F 62.6 °F 73% 29.89 in 6.2 mi ESE 15.0 mph - N/A   Unknown
4:00 AM 71.6 °F 62.6 °F 73% 29.89 in 6.2 mi SE 16.1 mph 27.6 mph N/A   Unknown
5:00 AM 71.6 °F 62.6 °F 73% 29.91 in 6.2 mi ESE 16.1 mph - N/A   Unknown
6:00 AM 72 °F 63 °F 65% 29.78 in 12 mi ESE 17.3 mph - -  
6:00 AM 71.6 °F 62.6 °F 73% 29.92 in 6.2 mi ESE 17.3 mph - N/A   Unknown
7:00 AM 73.4 °F 60.8 °F 65% 29.95 in 6.2 mi East 23.0 mph - N/A   Scattered Clouds
8:00 AM 75.2 °F 62.6 °F 65% 29.98 in 6.2 mi ESE 11.5 mph - N/A   Scattered Clouds
9:00 AM 75.2 °F 60.8 °F 61% 29.98 in 6.2 mi East 20.7 mph 32.2 mph N/A   Scattered Clouds
10:00 AM 77.0 °F 57.2 °F 50% 29.99 in 6.2 mi East 18.4 mph - N/A   Scattered Clouds
11:00 AM 78.8 °F 59.0 °F 51% 29.97 in 6.2 mi East 27.6 mph - N/A   Scattered Clouds
12:00 PM 78.8 °F 60.8 °F 54% 29.95 in 6.2 mi East 15.0 mph 34.5 mph N/A   Smoke
1:00 PM 78.8 °F 59.0 °F 51% 29.92 in 6.2 mi East 23.0 mph - N/A   Scattered Clouds
2:00 PM 78.8 °F 60.8 °F 54% 29.89 in 6.2 mi East 20.7 mph 32.2 mph N/A   Scattered Clouds
3:00 PM 77 °F 59 °F 44% 29.73 in 12 mi East 18.4 mph - -   Scattered Clouds
3:00 PM 77.0 °F 59.0 °F 54% 29.89 in 6.2 mi East 18.4 mph 29.9 mph N/A   Partly Cloudy
4:00 PM 73.4 °F 60.8 °F 65% 29.90 in 6.2 mi East 17.3 mph 28.8 mph N/A   Scattered Clouds
5:00 PM 73.4 °F 60.8 °F 65% 29.90 in 6.2 mi ESE 19.6 mph 31.1 mph N/A   Partly Cloudy
5:45 PM 68.0 °F 60.8 °F 78% 29.92 in 6.2 mi East 15.0 mph - N/A   Drizzle
6:00 PM 72 °F 61 °F 59% 29.78 in 12 mi ESE 18.4 mph - -   Scattered Clouds
6:00 PM 71.6 °F 60.8 °F 69% 29.91 in 6.2 mi ESE 18.4 mph 29.9 mph N/A   Partly Cloudy
7:00 PM 69.8 °F 60.8 °F 73% 29.93 in 6.2 mi ESE 16.1 mph 27.6 mph N/A   Partly Cloudy
8:00 PM 69.8 °F 60.8 °F 73% 29.96 in 6.2 mi ESE 18.4 mph 29.9 mph N/A   Partly Cloudy
9:00 PM 72 °F 63 °F 65% 29.80 in 12 mi ESE 19.6 mph - -   Scattered Clouds
9:00 PM 71.6 °F 62.6 °F 73% 29.96 in 6.2 mi ESE 19.6 mph 34.5 mph N/A   Scattered Clouds
10:00 PM 71.6 °F 60.8 °F 69% 29.97 in 6.2 mi ESE 20.7 mph - N/A Rain Light Rain
10:37 PM 71.6 °F 60.8 °F 69% 29.96 in 6.2 mi SE 21.9 mph 34.5 mph N/A   Light Drizzle
11:00 PM 71.6 °F 60.8 °F 69% 29.95 in 6.2 mi ESE 24.2 mph 35.7 mph N/A   Mostly Cloudy